Tekamah, NE

9:41 PM CST on December 13, 2017 (GMT -0600)
Tekamah

Weather History for KTQE - February, 2014

Change the Weather History Date:

Thursday, February 6, 2014

  Actual Average Record
Temperature  
Mean Temperature 1 °F -  
Max Temperature 10 °F 30 °F 55 °F (1966)
Min Temperature -8 °F 11 °F -16 °F (1982)
Degree Days  
Heating Degree Days 64    
Moisture  
Dew Point -10 °F    
Average Humidity 65    
Maximum Humidity 72    
Minimum Humidity 53    
Precipitation  
Precipitation 0.00 in - - ()
Sea Level Pressure  
Sea Level Pressure 30.59 in    
Wind  
Wind Speed 9 mph (West)    
Max Wind Speed 14 mph    
Max Gust Speed -    
Visibility 10 miles    
Events      
Averages and records for this station are not official NWS values.
T = Trace of Precipitation, MM = Missing Value Source: NWS Daily Summary

Daily Weather History Graph

Daily Weather History Graph

Search for Another Location

Airport or City:

Trip Planner

Search our weather history database for the weather conditions in past years. The results will help you decide how hot, cold, wet, or windy it might be!

Date:

Astronomy

Feb. 06, 2014 Rise Set
Actual Time 7:31 AM CST 5:46 PM CST
Civil Twilight 7:02 AM CST 6:15 PM CST
Nautical Twilight 6:29 AM CST 6:48 PM CST
Astronomical Twilight 5:56 AM CST 7:21 PM CST
Moon 11:18 AM CST (2/6) 12:48 AM CST (2/6)
Length of Visible Light 11h 13m
Length of Day
10h 15m
Waxing Crescent, 49% of the Moon is Illuminated
Feb 6
Waxing Crescent
Feb 6
First Quarter
Feb 14
Full
Feb 22
Last Quarter
Mar 1
New

Hourly Weather History & Observations

Time (CST) Temp. Windchill Dew Point Humidity Pressure Visibility Wind Dir Wind Speed Gust Speed Precip Events Conditions
12:54 AM -4.0 °F -20.2 °F -11.9 °F 69% 30.70 in 10.0 mi WNW 9.2 mph - N/A   Clear
1:54 AM -2.9 °F -16.5 °F -11.9 °F 65% 30.69 in 10.0 mi NW 6.9 mph - N/A   Clear
2:54 AM -5.1 °F -17.6 °F -13.0 °F 69% 30.67 in 10.0 mi NW 5.8 mph - N/A   Clear
3:54 AM -4.0 °F -21.2 °F -13.0 °F 65% 30.66 in 10.0 mi WNW 10.4 mph - N/A   Clear
4:54 AM -4.0 °F -23.7 °F -13.0 °F 65% 30.66 in 10.0 mi NW 13.8 mph - N/A   Clear
5:54 AM -5.1 °F -22.5 °F -14.1 °F 65% 30.67 in 10.0 mi WNW 10.4 mph - N/A   Clear
6:54 AM -6.0 °F -16.9 °F -14.1 °F 68% 30.68 in 10.0 mi West 4.6 mph - N/A   Clear
7:54 AM -6.0 °F -23.6 °F -15.0 °F 65% 30.69 in 10.0 mi WNW 10.4 mph - N/A   Clear
8:54 AM -2.0 °F -20.5 °F -11.9 °F 63% 30.67 in 10.0 mi NW 12.7 mph - N/A   Clear
9:54 AM -0.0 °F -15.3 °F -11.0 °F 60% 30.68 in 10.0 mi WNW 9.2 mph - N/A   Clear
10:54 AM 1.9 °F -11.8 °F -9.0 °F 60% 30.66 in 10.0 mi WSW 8.1 mph - N/A   Clear
11:54 AM 5.0 °F -10.8 °F -7.1 °F 58% 30.64 in 10.0 mi WNW 11.5 mph - N/A   Clear
12:54 PM 8.1 °F -6.2 °F -5.1 °F 55% 30.59 in 10.0 mi West 10.4 mph - N/A   Clear
1:54 PM 10.0 °F -5.2 °F -2.9 °F 56% 30.56 in 10.0 mi West 12.7 mph - N/A   Mostly Cloudy
2:54 PM 10.0 °F -5.2 °F -4.0 °F 53% 30.54 in 10.0 mi West 12.7 mph - N/A   Overcast
3:54 PM 9.0 °F -5.1 °F -2.0 °F 61% 30.53 in 10.0 mi WSW 10.4 mph - N/A   Overcast
4:54 PM 9.0 °F -4.2 °F -2.0 °F 61% 30.51 in 10.0 mi West 9.2 mph - 0.00 in   Scattered Clouds
5:54 PM 3.9 °F -9.4 °F -4.0 °F 70% 30.50 in 10.0 mi WSW 8.1 mph - N/A   Clear
6:54 PM -0.0 °F -11.6 °F -7.1 °F 72% 30.51 in 10.0 mi WSW 5.8 mph - N/A   Clear
7:54 PM -0.9 °F -15.3 °F -8.0 °F 72% 30.50 in 10.0 mi SW 8.1 mph - N/A   Clear
8:54 PM -6.0 °F -14.7 °F -13.0 °F 72% 30.49 in 10.0 mi South 3.5 mph - N/A   Clear
9:54 PM -8.0 °F -21.0 °F -15.0 °F 71% 30.50 in 10.0 mi SSW 5.8 mph - N/A   Clear
10:54 PM -5.1 °F -19.1 °F -11.9 °F 72% 30.48 in 10.0 mi SW 6.9 mph - N/A   Clear
11:54 PM -6.0 °F -21.5 °F -13.0 °F 72% 30.47 in 10.0 mi SW 8.1 mph - N/A   Clear